This demonstration page uses our WeatherBlox Daily Observations layout. Learn more.

Left ArrowRight Arrow

39.92423, -83.80882

Hourly Observations for November 4, 2018

Temp ( °F °C ) Dew Point ( °F °C ) Humidity (%) Winds ( mph kmh ) Pressure ( in mb ) Visibility ( mi km ) Precip ( " mm )
12:56 am 00:56 Clear 40 4.4 35 1.7 83 83 SE 6 9 30.35 1028 10 16.0934 N/A
1:56 am 01:56 Clear 41 5 36 2.2 82 82 SE 6 9 30.35 1028 10 16.0934 0.01 0.254
1:56 am 01:56 Hazy 42 5.6 37 2.8 82 82 ESE 6 9 30.34 1028 6 9.65604 N/A
2:56 am 02:56 Clear 40 4.4 37 2.8 89 89 E 5 7 30.34 1027 8 12.87472 N/A
3:16 am 03:16 Clear with Light Rain 41 5 37 3 87 87 E 6 9 30.36 1028 2 3.21868 N/A
3:56 am 03:56 Partly Cloudy with Light Rain 42 5.6 37 2.8 82 82 ESE 9 15 30.32 1027 1.5 2.41401 N/A
4:27 am 04:27 Hazy 43 6 37 3 81 81 ESE 7 11 30.33 1027 3 4.82802 N/A
4:56 am 04:56 Clear 43 6.1 36 2.2 76 76 ESE 10 17 30.32 1027 7 11.26538 N/A
5:56 am 05:56 Mostly Clear 42 5.6 36 2.2 79 79 ESE 10 17 30.33 1027 10 16.0934 0.01 0.254
6:56 am 06:56 Clear 42 5.6 35 1.7 76 76 ESE 13 20 30.32 1027 10 16.0934 N/A
7:56 am 07:56 Mostly Cloudy 40 4.4 36 2.2 86 86 ESE 9 15 30.32 1027 10 16.0934 N/A
8:56 am 08:56 Sunny 43 6.1 36 2.2 76 76 SE 12 19 30.32 1027 10 16.0934 N/A
10:56 am 10:56 Sunny 51 10.6 39 3.9 64 64 SE 16 26 30.26 1025 10 16.0934 N/A
11:56 am 11:56 Sunny 53 11.7 41 5 64 64 SE 13 20 30.24 1024 10 16.0934 0.01 0.254
12:56 pm 12:56 Sunny 54 12.2 42 5.6 64 64 ESE 14 22 30.17 1022 10 16.0934 N/A
1:56 pm 13:56 Sunny 56 13.3 44 6.7 65 65 SE 13 20 30.14 1021 10 16.0934 N/A
2:56 pm 14:56 Sunny 56 13.3 43 6.1 62 62 SE 10 17 30.12 1020 10 16.0934 N/A
3:56 pm 15:56 Sunny 55 12.8 43 6.1 64 64 ESE 14 22 30.11 1020 10 16.0934 N/A
4:56 pm 16:56 Sunny 54 12.2 43 6.1 67 67 SE 14 22 30.09 1019 10 16.0934 0.01 0.254
5:56 pm 17:56 Mostly Cloudy 53 11.7 42 5.6 66 66 SE 12 19 30.11 1020 10 16.0934 N/A
6:56 pm 18:56 Cloudy with Light Rain 52 11.1 42 5.6 69 69 SE 14 22 30.09 1019 10 16.0934 N/A
7:56 pm 19:56 Cloudy with Light Rain 51 10.6 42 5.6 71 71 SSE 5 7 30.09 1019 10 16.0934 N/A
8:56 pm 20:56 Cloudy 51 10.6 42 5.6 71 71 S 6 9 30.07 1018 10 16.0934 N/A
9:56 pm 21:56 Cloudy with Light Rain 50 10 44 6.7 80 80 S 7 11 30.07 1018 10 16.0934 N/A
10:56 pm 22:56 Cloudy 49 9.4 45 7.2 86 86 S 6 9 30.07 1018 10 16.0934 N/A
11:56 pm 23:56 Cloudy 49 9.4 45 7.2 86 86 S 8 13 30.05 1018 10 16.0934 N/A

Powered by AerisWeather